TJBQMDPC

Guest
Details From TJBQ - Aguadilla/Rafael Hernandez
To MDPC - Punta Cana Intl
Flight Number -
Tags generated
Created
Modified
Stats Distance 71 nm / 132 km
Max Altitude 4,600 ft / 1,402 m
Waypoints 3
Social Downloads 0
Likes 0
Share VATSIM

Download

Looking for another format? Having issues loading an existing format? Contact us
Advertisement - Login to hide

Notes

Basic altitude profile: - Ascent Rate: 2500ft/min - Ascent Speed: 250kts - Cruise Altitude: 35000ft - Cruise Speed: 420kts - Descent Rate: 1500ft/min - Descent Speed: 250kts Options: - Use NATs: yes - Use PACOTS: yes - Use low airways: yes - Use high airways: yes

Route

TJBQ ANTEX MDPC

ID Type Via Altitude Latitude Longitude Leg Dist Tot Dist Heading (true) Name
O TJBQ APT - 0 ft / 0 m 18.49482˚ -67.12922˚ - 0 nm - Aguadilla/Rafael Hernandez
ANTEX FIX - 4,600 ft / 1,402 m 18.47925˚ -68.00000˚ 49 nm 49 nm 269° / 269° -
O MDPC APT - 0 ft / 0 m 18.57057˚ -68.36613˚ 21 nm 71 nm 285° / 285° Punta Cana Intl

Altitude Profile

Advertisement - Login to hide

TJBQ

Details ICAO TJBQ (BQN)
Name Aguadilla/Rafael Hernandez
Region USA (Puerto Rico)
Timezone America/Puerto_Rico (UTC-4.0)
Stats Elevation 237 ft / 72 m (AMSL)
Location 18.494825° -67.129216°
Runways 1
Magnetic Variation 12.762° W

METAR

TJBQ 242150Z 09006KT 10SM OVC065 26/21 A3003

Decode

TAF

TAF TJBQ 241726Z 2418/2518 08014KT P6SM VCTS SCT025CB BKN050 TEMPO 2418/2421 VRB15KT 3SM TSRA BKN025CB FM242300 10007KT P6SM SCT040 SCT060 FM251400 07015KT P6SM SCT030 AMD NOT SKED 2502/2511

Decode

Departure Runways

ID Width Length Bearing (true) Bearing (mag) Surface Threshold Offset Overrun Length
08 200 ft / 61 m 11,724 ft / 3,574 m 72.33° 85.09° Asphalt 400 ft / 122 m 768 ft / 234 m
26 200 ft / 61 m 11,724 ft / 3,574 m 252.34° 265.10° Asphalt 0 ft / 0 m 151 ft / 46 m

MDPC

Details ICAO MDPC (PUJ)
Name Punta Cana Intl
Region Dominican Republic
Timezone America/Santo_Domingo (UTC-4.0)
Stats Elevation 46 ft / 14 m (AMSL)
Location 18.570574° -68.366130°
Runways 2
Magnetic Variation 12.206° W

METAR

MDPC 242200Z 09011KT 9999 SCT022 27/23 Q1016

Decode

TAF

Not found

Destination Runways

ID Width Length Bearing (true) Bearing (mag) Surface Threshold Offset Overrun Length
08 148 ft / 45 m 10,110 ft / 3,082 m 74.20° 86.41° Asphalt 0 ft / 0 m 374 ft / 114 m
09 148 ft / 45 m 10,163 ft / 3,098 m 84.79° 97.00° Asphalt 0 ft / 0 m 374 ft / 114 m
26 148 ft / 45 m 10,110 ft / 3,082 m 254.21° 266.42° Asphalt 0 ft / 0 m 374 ft / 114 m
27 148 ft / 45 m 10,163 ft / 3,098 m 264.80° 277.01° Asphalt 0 ft / 0 m 374 ft / 114 m

Popular Alternatives